FW6165 Weather Reports


time (UTC)temp
C
wind
direction
speed
KPH
gust
KPH
rain 1hr
cm
rain 24hr
cm
rain mn
cm
humidity
%
barometer
mb
20260505034501 13 256 0.0 0.0 0.00 0.00 0.00 79 1010.2
20260505033500 14 256 0.0 0.0 0.00 0.00 0.00 78 1010.2
20260505032459 14 256 0.0 0.0 0.00 0.00 0.00 77 1010.2
20260505031458 14 256 0.0 0.0 0.00 0.00 0.00 78 1010.2
20260505030457 14 256 0.0 0.0 0.00 0.00 0.00 78 1010.2
20260505025457 15 256 0.0 0.0 0.00 0.00 0.00 77 1010.2
20260505024425 15 256 0.0 0.0 0.00 0.00 0.00 77 1010.2
20260505023425 15 256 0.0 0.0 0.00 0.00 0.00 76 1010.2
20260505022424 15 256 0.0 0.0 0.00 0.00 0.00 75 1010.2
20260505021423 15 256 0.0 0.0 0.00 0.00 0.00 76 1010.2
20260505020422 15 256 0.0 0.0 0.00 0.00 0.00 75 1009.8
20260505015422 15 256 0.0 0.0 0.00 0.00 0.00 75 1009.8
20260505014421 15 256 0.0 0.0 0.00 0.00 0.00 74 1009.8
20260505013420 15 256 0.0 0.0 0.00 0.00 0.00 73 1009.8
20260505012419 16 256 0.0 0.0 0.00 0.00 0.00 73 1009.8
20260505011418 16 256 0.0 0.0 0.00 0.00 0.00 72 1009.5
20260505010410 16 256 0.0 0.0 0.00 0.00 0.00 74 1009.5
20260505005409 16 256 0.0 0.0 0.00 0.00 0.00 72 1009.5
20260505004409 16 256 0.0 0.0 0.00 0.00 0.00 70 1009.5
20260505003408 17 256 0.0 0.0 0.00 0.00 0.00 69 1009.5
20260505002407 17 256 0.0 0.0 0.00 0.00 0.00 63 1009.5
20260505001407 17 256 0.0 0.0 0.00 0.00 0.00 61 1009.1
20260505000407 18 256 0.0 0.0 0.00 0.00 0.00 59 1009.5
20260504235406 18 256 0.0 0.0 0.00 0.00 0.00 58 1009.1
20260504234405 18 256 0.0 0.0 0.00 0.00 0.00 56 1009.1
20260504233404 19 256 0.0 0.0 0.00 0.00 0.00 54 1009.1
20260504232404 20 256 0.0 0.0 0.00 0.00 0.00 53 1009.1
20260504231403 20 256 0.0 0.0 0.00 0.00 0.00 51 1009.1
20260504230402 20 256 0.0 1.6 0.00 0.00 0.00 50 1009.1
20260504225401 21 226 1.6 6.4 0.00 0.00 0.00 46 1009.1
20260504224400 21 107 1.6 1.6 0.00 0.00 0.00 46 1009.1
20260504223400 21 143 0.0 1.6 0.00 0.00 0.00 45 1009.1
20260504222359 21 85 1.6 6.4 0.00 0.00 0.00 45 1009.1
20260504221358 21 109 1.6 3.2 0.00 0.00 0.00 44 1009.1
20260504220358 22 103 1.6 4.8 0.00 0.00 0.00 43 1009.1
20260504215357 22 111 1.6 6.4 0.00 0.00 0.00 42 1009.1
20260504214356 23 341 3.2 6.4 0.00 0.00 0.00 41 1009.1
20260504213355 23 273 1.6 6.4 0.00 0.00 0.00 40 1008.8
20260504212355 23 344 4.8 6.4 0.00 0.00 0.00 38 1009.1
20260504211355 23 103 1.6 3.2 0.00 0.00 0.00 36 1009.1
20260504210354 23 277 0.0 3.2 0.00 0.00 0.00 37 1008.8
20260504205353 23 82 0.0 4.8 0.00 0.00 0.00 36 1009.1
20260504204352 23 246 0.0 6.4 0.00 0.00 0.00 38 1009.1
20260504203249 23 104 1.6 6.4 0.00 0.00 0.00 36 1009.1
20260504202218 23 280 0.0 4.8 0.00 0.00 0.00 37 1009.5
20260504201217 23 231 1.6 4.8 0.00 0.00 0.00 37 1009.5
20260504200217 23 103 0.0 3.2 0.00 0.00 0.00 38 1009.5
20260504195216 23 102 0.0 3.2 0.00 0.00 0.00 38 1009.8
20260504194215 23 112 1.6 3.2 0.00 0.00 0.00 37 1009.8
20260504193214 23 278 0.0 4.8 0.00 0.00 0.00 37 1010.2
20260504192111 23 303 3.2 3.2 0.00 0.00 0.00 38 1010.2
20260504191110 23 319 1.6 4.8 0.00 0.00 0.00 39 1010.5
20260504190109 23 218 1.6 6.4 0.00 0.00 0.00 38 1010.5
20260504185109 23 108 3.2 6.4 0.00 0.00 0.00 39 1010.8
20260504184108 22 280 1.6 3.2 0.00 0.00 0.00 38 1010.8
20260504183005 22 271 0.0 3.2 0.00 0.00 0.00 39 1010.8
20260504181933 22 96 1.6 3.2 0.00 0.00 0.00 37 1011.2
20260504180932 22 117 1.6 3.2 0.00 0.00 0.00 38 1011.2
20260504175931 22 105 3.2 4.8 0.00 0.00 0.00 36 1011.5
20260504174931 22 131 3.2 4.8 0.00 0.00 0.00 38 1011.5
20260504173930 22 286 1.6 4.8 0.00 0.00 0.00 38 1011.5
20260504172929 22 273 1.6 6.4 0.00 0.00 0.00 37 1011.9
20260504171929 22 107 1.6 3.2 0.00 0.00 0.00 38 1011.9
20260504170928 21 99 1.6 1.6 0.00 0.00 0.00 38 1012.2
20260504150920 18 288 1.6 3.2 0.00 0.00 0.00 42 1013.2
20260504140813 16 273 0.0 1.6 0.00 0.00 0.00 53 1013.5
20260504130738 13 278 0.0 1.6 0.00 0.00 0.00 63 1013.9
20260504110628 8 266 0.0 0.0 0.00 0.00 0.00 84 1014.6
20260504081616 8 267 0.0 0.0 0.00 0.00 0.00 85 1014.9
20260504080616 7 267 0.0 0.0 0.00 0.00 0.00 85 1014.9
20260504050328 6 266 0.0 0.0 0.00 0.00 0.00 84 1014.9
20260504045327 6 267 0.0 0.0 0.00 0.00 0.00 84 1015.2
20260504044326 6 267 0.0 0.0 0.00 0.00 0.00 84 1015.2
20260504043326 6 267 0.0 0.0 0.00 0.00 0.00 84 1015.2
20260504042325 6 267 0.0 0.0 0.00 0.00 0.00 84 1015.2
20260504041324 6 267 0.0 0.0 0.00 0.00 0.00 83 1015.2
20260504040252 6 267 0.0 0.0 0.00 0.00 0.00 83 1015.2
20260504035252 6 267 0.0 0.0 0.00 0.00 0.00 82 1015.2